Showing default

EGYPTSAT A, 44047

Orbit data source: Space-Track

EGYPTSAT A, 44047 is a payload satellite owned by EgSA (EG) in SSO that was launched on Thu, 21 Feb 2019 UTC via a SOYUZ-2-1B launch vehicle from the Tyuratam Missile And Space Complex (TTMTR). Payload-class satellites include a variety of spacecraft equipped with specific instruments for various scientific and technological missions. These include communications satellites like Starlink; space stations such as the ISS; scientific satellites like the Hubble; Earth observation satellites from companies like Planet Labs, Umbra, and HawkEye 360; GPS; miniature CubeSats for education and research; and military/defense satellites.

Loading next visibility...
Identifier
44047, 2019-008A
Orbit
SSO
Country
Flag of EGEG / EGYP
Related business
Manufacturer
Yuzhnoe
Mission
Operational Civil Imaging
Bus & Motor
EGYPTSAT, Unknown motor
Mass
~1,050 kg wet, ~1,050 kg dry
Launch date (UTC)
2019-02-21 (7 years ago)
Launch vehicle
SOYUZ-2-1B
Launch site
Tyuratam Missile And Space Complex (TTMTR)
Object type
Payload
Rocket body
Debris
Shape & HBR
Box + 4 Pan + 1 Ant, 1.0 m
Radar Cross Section
0.867 m², Large (>1 m²)

Expand to show TLE details & history
Last TLE update: 23 hours ago

TLE from 23 hours ago
0 EGYPTSAT A
1 44047U 19008A   26172.49277352  .00000909  00000-0  15161-3 0  9999
2 44047  98.0187 237.1963 0001386  99.1383 260.9981 14.72313459393870
Epoch: 2026-06-21T11:49Z
TLE epoch observation values (Epoch: 2026-06-21T11:49:35.632Z)
Latitude
-0.00002°
Longitude
150.10558°
Altitude
656.852 km
Speed
7.529 km/s
True Right ascension
15h 48m 47s
True Declination
0° 00' 00"
Sunlit
Object was in full shadow at epoch
Visualization orbit readout
Latitude
Unknown
Longitude
Unknown
Altitude
Unknown
Speed
Unknown
Apparent Right ascension
Unknown
Apparent Declination
Unknown
Sunlit
N/A
Visualization observer readout
Local Sidereal Time
21:39:29
Azimuth
Unknown
Elevation
Unknown
Doppler factor
Unknown
Orbital elements
Apogee altitude
651.723 km
Perigee altitude
649.775 km
Semi-major axis
7,028.886 km
Eccentricity
0.00014
Inclination
98.0187°
RAAN
237.1963°
Arg. of periapsis
99.1383°
True anomaly
260.98241°
Mean anomaly
260.9981°
Eccentric anomaly
260.99026°
Mean motion
3.6831 °/min
Orbital period
97.74 mins
BSTAR
0.00015161
Loading maneuver chart data...
Computing Atmospheric mass density...
Loading historical data...
Loading historical data...
Loading historical data...
Loading historical data...
Loading historical data...
Loading historical data...
Loading historical data...
Other satellites on launch #8 in the year 2019 (2019-02-21 UTC)

Documentation

Showing up to 5 results
|